TRANSIT 5B-2 DEB, 25156

Orbit data source: Space-Track

TRANSIT 5B-2 DEB, 25156 is space debris in LEO originally from a launch on Thu, 05 Dec 1963 UTC launched from the Air Force Western Test Range (AFWTR). Debris objects in space refer to the collection of defunct objects orbiting the Earth. Examples of debris include non-operational satellites, rocket bodies, and fragments generated from explosions, collisions, or faulty payload assembly.

Loading next visibility...
Identifier
25156, 1963-049N
Orbit
LEO
Country
Flag of USUS
Related business
Manufacturer
Unknown
Mission
Spacecraft
Bus & Motor
Unknown
Mass
Unknown
Launch date (UTC)
1963-12-05 (62 years ago)
Launch vehicle
Unknown
Launch site
Air Force Western Test Range (AFWTR)
Object type
Payload
Rocket body
Debris
Shape & HBR
Unknown shape, 0.3 m
Radar Cross Section
Medium (>0.1 m² and <1 m²)

Expand to show TLE details & history
Last TLE update: 9 hours ago

TLE from 9 hours ago
0 TRANSIT 5B-2 DEB
1 25156U 63049N   26120.59961560  .00000693  00000-0  95210-3 0  9991
2 25156  89.9209  72.3301 0041477 158.7695  17.5985 13.57287721392572
Epoch: 2026-04-30T14:23Z
TLE epoch observation values (Epoch: 2026-04-30T14:23:26.787Z)
Latitude
3.39233°
Longitude
177.91992°
Altitude
1,018.809 km
Speed
7.357 km/s
True Right ascension
16h 49m 18s
True Declination
3° 22' 22"
Sunlit
Object was in full shadow at epoch
Visualization orbit readout
Latitude
Unknown
Longitude
Unknown
Altitude
Unknown
Speed
Unknown
Apparent Right ascension
Unknown
Apparent Declination
Unknown
Sunlit
N/A
Visualization observer readout
Local Sidereal Time
06:30:36
Azimuth
Unknown
Elevation
Unknown
Doppler factor
Unknown
Orbital elements
Apogee altitude
1,073.384 km
Perigee altitude
1,011.826 km
Semi-major axis
7,420.742 km
Eccentricity
0.00415
Inclination
89.9209°
RAAN
72.3301°
Arg. of periapsis
158.7695°
True anomaly
17.74292°
Mean anomaly
17.5985°
Eccentric anomaly
17.67064°
Mean motion
3.39525 °/min
Orbital period
106.03 mins
BSTAR
0.0009521
Loading maneuver chart data...
Computing Atmospheric mass density...
Loading historical data...
Loading historical data...
Loading historical data...
Loading historical data...
Loading historical data...
Loading historical data...
Loading historical data...

Documentation

Showing up to 5 results
|